Regional Weather Roundup
Issued by NWS Mt. Holly, NJ

Current Version | Previous Version | Text Only | Print | Product List | Glossary On
Versions: 1 2 3 4 5 6 7 8 9 10 11 12 13 14 15 16 17 18 19 20 21 22 23 24 25 26 27
000
ASUS41 KPHI 280712
RWRPHI

REGIONAL WEATHER ROUNDUP
NATIONAL WEATHER SERVICE MOUNT HOLLY NJ
300 AM EDT TUE JUN 28 2016

NOTE:  "FAIR" INDICATES FEW OR NO CLOUDS BELOW 12,000 FEET WITH NO
SIGNIFICANT WEATHER AND/OR OBSTRUCTIONS TO VISIBILITY.

 * = STATION DOES NOT REPORT PRECIPITATION (E.G. RAIN, SNOW, ETC.)
        OR FOG.

NJZ015>026-280800-
SOUTHERN NEW JERSEY

CITY           SKY/WX    TMP DP  RH WIND       PRES   REMARKS
POMONA         LGT RAIN  72  68  87 S7        29.97F FOG
WILDWOOD*      CLOUDY    72  68  88 S13       29.96F
MILLVILLE      CLOUDY    72  69  90 CALM      29.97S
WRIGHTSTOWN    HVY RAIN  68  68 100 S5        29.95S FOG
MOUNT HOLLY    LGT RAIN  70  68  93 E3        29.96S
TRENTON        CLOUDY    70  67  90 S6        29.96F

$$
NJZ001>014-280800-
NORTHERN NEW JERSEY

CITY           SKY/WX    TMP DP  RH WIND       PRES   REMARKS
SUSSEX         CLOUDY    69  66  90 CALM      29.96F FOG
ANDOVER*         N/A     70  68  93 CALM      29.97F
MORRISTOWN     CLOUDY    70  68  94 CALM      29.97F
NEWARK         CLOUDY    71  69  93 S7        29.97S
TETERBORO      CLOUDY    70  66  87 S5        29.96F
CALDWELL       CLOUDY    71  67  87 CALM      29.97F
SOMERVILLE     CLOUDY    71  69  93 CALM      29.95F FOG
ALLAIRE*       RAIN      70  68  93 SW5       29.99S
TOMS RIVER*    RAIN      70  69  97 S6        29.98F

$$
PAZ043-044-047-054-055-060>062-066>071-280800-
EASTERN PENNSYLVANIA

CITY           SKY/WX    TMP DP  RH WIND       PRES   REMARKS
PHILADELPHIA   CLOUDY    72  69  90 VRB3      29.96F
NORTH PHILA    CLOUDY    71  68  90 S3        29.97F
BLUE BELL*     CLOUDY    68  68 100 CALM      29.95F
DOYLESTOWN     CLOUDY    68  67  96 S3        29.96S
QUAKERTOWN*    MOCLDY    70  68  94 CALM      29.97F
PERKASIE*      CLOUDY    68  68 100 CALM      29.97F FOG
POTTSTOWN      CLOUDY    70  68  93 CALM      29.97F
LANCASTER      CLOUDY    69  67  93 SE3       29.95S
COATESVILLE    CLOUDY    68  68 100 CALM      29.98S
READING        CLOUDY    72  68  87 W5        29.95S
ALLENTOWN      CLOUDY    73  68  83 CALM      29.95F
MOUNT POCONO   FOG       66  65  96 S6        30.00S VSB 1/2
HAZLETON       RAIN      68  68 100 CALM      30.01F
LEHIGHTON      CLOUDY    70  70 100 CALM      29.96F FOG
WILKES BARRE   CLOUDY    71  67  87 CALM      29.94F

$$
DEZALL-MDZ008-012-015-019-020-280800-
DELAWARE AND EASTERN MARYLAND

CITY           SKY/WX    TMP DP  RH WIND       PRES   REMARKS
WILMINGTON     CLOUDY    71  68  90 SE7       29.95F
DOVER          DRIZZLE   73  73 100 SW7       29.94F
GEORGETOWN     CLOUDY    74  69  85 S9        29.97S
EASTON         LGT RAIN  75  75 100 SW6       29.99S
PATUXENT       CLOUDY    73  70  90 SW8       29.95S THUNDER FOG
OCEAN CITY     CLOUDY    74  70  87 VRB7      29.97F
WALLOPS ISLAND HVY RAIN  73  71  93 S16       29.99R FOG
CAMBRIDGE      CLOUDY    72  70  94 S5        29.95S
SALISBURY      CLOUDY    73  69  87 S10       29.96F

$$
PAZ001-021-NYZ056-072-MDZ011-DCZ001-280800-
OTHER NEARBY LOCATIONS

CITY           SKY/WX    TMP DP  RH WIND       PRES   REMARKS
HARRISBURG     MOCLDY    71  67  87 SE5       29.92F
STATE COLLEGE  PTCLDY    68  66  94 CALM      29.94F
WILLIAMSPORT   PTCLDY    71  67  87 CALM      29.91S
BINGHAMTON     CLOUDY    66  65  96 S5        29.95F FOG
NEW YORK CITY  CLOUDY    69  67  93 S3        30.00F
BALTIMORE      CLOUDY    73  68  84 CALM      29.93F
WASHINGTON DC  FAIR      74  71  91 S7        29.93F

$$




USA.gov is the U.S. government's official web portal to all federal, state and local government web resources and services.